When you browse on this site, cookies collect data to enhance your experience and personalize the content and advertising you see.
Visit our Privacy Policy to learn more. By continuing to use the site, you agree to this use of cookies and data.
  • en Suisse
  • Liste des pays
  • À 7 jours
  • Température de l'eau
  • Carte météo
  • Widgets météo
  • user-avatar
    Se connecter

    Météo par heure à Slavyanogorsk

    Ce jour, 27 Février, Jeudi

    Heure Température Précipitation Vent Pression Humidité
    00:00 +3°C° 0 mm 6 m/s 745 mmHg 78%
    01:00 +3°C° 0 mm 5 m/s 745 mmHg 80%
    02:00 +2°C° 0 mm 5 m/s 745 mmHg 81%
    03:00 +2°C° 0 mm 5 m/s 744 mmHg 83%
    04:00 +3°C° 0 mm 4 m/s 744 mmHg 85%
    05:00 +3°C° 0 mm 4 m/s 744 mmHg 87%
    06:00 +3°C° 0 mm 4 m/s 744 mmHg 89%
    07:00 +3°C° 0 mm 4 m/s 744 mmHg 88%
    08:00 +3°C° 0 mm 5 m/s 744 mmHg 87%
    09:00 +3°C° 0 mm 5 m/s 744 mmHg 86%
    10:00 +5°C° 0 mm 6 m/s 744 mmHg 80%
    11:00 +8°C° 0 mm 6 m/s 743 mmHg 74%
    12:00 +10°C° 0 mm 7 m/s 743 mmHg 68%
    13:00 +10°C° 0 mm 7 m/s 743 mmHg 72%
    14:00 +10°C° 0 mm 6 m/s 743 mmHg 75%
    15:00 +10°C° 0 mm 6 m/s 742 mmHg 79%
    16:00 +10°C° 0 mm 6 m/s 742 mmHg 80%
    17:00 +9°C° 0 mm 5 m/s 742 mmHg 82%
    18:00 +9°C° 0 mm 5 m/s 742 mmHg 84%
    19:00 +9°C° 0 mm 5 m/s 742 mmHg 84%
    20:00 +9°C° 0 mm 5 m/s 742 mmHg 85%
    21:00 +9°C° 0 mm 6 m/s 742 mmHg 85%
    22:00 +9°C° 0 mm 6 m/s 742 mmHg 86%
    23:00 +9°C° 0 mm 6 m/s 742 mmHg 87%

    Demain, 28 Février, Vendredi

    Heure Température Précipitation Vent Pression Humidité
    00:00 +8°C° 0 mm 5 m/s 742 mmHg 87%
    01:00 +8°C° 0.1 mm 6 m/s 742 mmHg 86%
    02:00 +8°C° 0.1 mm 7 m/s 742 mmHg 85%
    03:00 +8°C° 0.1 mm 7 m/s 741 mmHg 83%
    04:00 +8°C° 0.9 mm 7 m/s 741 mmHg 84%
    05:00 +7°C° 0.9 mm 6 m/s 740 mmHg 85%
    06:00 +7°C° 0.9 mm 6 m/s 739 mmHg 86%
    07:00 +7°C° 0.4 mm 6 m/s 739 mmHg 84%
    08:00 +6°C° 0.4 mm 7 m/s 739 mmHg 83%
    09:00 +6°C° 0.4 mm 8 m/s 739 mmHg 81%
    10:00 +5°C° 0 mm 8 m/s 739 mmHg 78%
    11:00 +5°C° 0 mm 8 m/s 739 mmHg 75%
    12:00 +4°C° 0 mm 8 m/s 740 mmHg 71%
    13:00 +2°C° 0.2 mm 9 m/s 741 mmHg 77%
    14:00 +1°C° 0.2 mm 9 m/s 742 mmHg 82%
    15:00 0°C° 0.2 mm 10 m/s 743 mmHg 88%
    16:00 0°C° 0 mm 9 m/s 745 mmHg 82%
    17:00 +2°C° 0 mm 7 m/s 746 mmHg 75%
    18:00 +2°C° 0 mm 6 m/s 747 mmHg 69%
    19:00 +1°C° 0 mm 5 m/s 748 mmHg 72%
    20:00 +1°C° 0 mm 4 m/s 749 mmHg 75%
    21:00 +1°C° 0 mm 3 m/s 750 mmHg 79%
    22:00 +1°C° 0 mm 3 m/s 750 mmHg 79%
    23:00 +1°C° 0 mm 3 m/s 751 mmHg 80%

    Après-demain, 29 Février, Samedi

    Heure Température Précipitation Vent Pression Humidité
    00:00 +1°C° 0 mm 3 m/s 751 mmHg 80%
    01:00 0°C° 0 mm 3 m/s 752 mmHg 81%
    02:00 +1°C° 0 mm 2 m/s 752 mmHg 82%
    03:00 +1°C° 0 mm 2 m/s 752 mmHg 83%
    04:00 +1°C° 0 mm 2 m/s 752 mmHg 83%
    05:00 +2°C° 0 mm 1 m/s 752 mmHg 83%
    06:00 +2°C° 0 mm 1 m/s 752 mmHg 82%
    07:00 +2°C° 0 mm 1 m/s 752 mmHg 80%
    08:00 +3°C° 0 mm 1 m/s 752 mmHg 78%
    09:00 +3°C° 0 mm 1 m/s 753 mmHg 76%
    10:00 +4°C° 0 mm 1 m/s 753 mmHg 70%
    11:00 +5°C° 0 mm 1 m/s 753 mmHg 64%
    12:00 +6°C° 0 mm 1 m/s 753 mmHg 59%
    13:00 +6°C° 0 mm 1 m/s 753 mmHg 56%
    14:00 +6°C° 0 mm 0 m/s 753 mmHg 53%
    15:00 +6°C° 0 mm 0 m/s 753 mmHg 50%
    16:00 +5°C° 0 mm 0 m/s 753 mmHg 54%
    17:00 +5°C° 0 mm 0 m/s 753 mmHg 57%
    18:00 +5°C° 0 mm 1 m/s 753 mmHg 61%
    19:00 +5°C° 0 mm 1 m/s 754 mmHg 63%
    20:00 +4°C° 0 mm 1 m/s 754 mmHg 65%
    21:00 +4°C° 0 mm 1 m/s 755 mmHg 67%
    22:00 +3°C° 0 mm 0 m/s 755 mmHg 68%
    23:00 +2°C° 0 mm 0 m/s 755 mmHg 68%

    1 Mars, Dimanche

    Heure Température Précipitation Vent Pression Humidité
    00:00 +2°C° 0 mm 0 m/s 755 mmHg 69%
    01:00 +2°C° 0 mm 0 m/s 756 mmHg 70%
    02:00 +2°C° 0 mm 0 m/s 756 mmHg 70%
    03:00 +1°C° 0 mm 0 m/s 756 mmHg 70%
    04:00 +1°C° 0 mm 0 m/s 757 mmHg 71%
    05:00 +1°C° 0 mm 0 m/s 757 mmHg 72%
    06:00 +2°C° 0 mm 1 m/s 757 mmHg 72%
    07:00 +3°C° 0 mm 1 m/s 758 mmHg 70%
    08:00 +3°C° 0 mm 1 m/s 758 mmHg 68%
    09:00 +4°C° 0 mm 1 m/s 759 mmHg 66%
    10:00 +5°C° 0 mm 1 m/s 759 mmHg 62%
    11:00 +6°C° 0 mm 1 m/s 759 mmHg 58%
    12:00 +6°C° 0 mm 2 m/s 759 mmHg 53%
    13:00 +8°C° 0 mm 1 m/s 759 mmHg 50%
    14:00 +8°C° 0 mm 1 m/s 759 mmHg 47%
    15:00 +9°C° 0 mm 1 m/s 759 mmHg 44%
    16:00 +8°C° 0 mm 1 m/s 759 mmHg 48%
    17:00 +7°C° 0 mm 1 m/s 759 mmHg 51%
    18:00 +7°C° 0 mm 1 m/s 758 mmHg 54%
    19:00 +6°C° 0 mm 1 m/s 759 mmHg 57%
    20:00 +4°C° 0 mm 2 m/s 759 mmHg 60%
    21:00 +4°C° 0 mm 2 m/s 759 mmHg 63%
    22:00 +3°C° 0 mm 2 m/s 759 mmHg 65%
    23:00 +2°C° 0 mm 3 m/s 760 mmHg 67%

    2 Mars, Lundi

    Heure Température Précipitation Vent Pression Humidité
    00:00 +2°C° 0 mm 3 m/s 760 mmHg 70%
    01:00 +1°C° 0 mm 3 m/s 760 mmHg 73%
    02:00 +2°C° 0 mm 2 m/s 760 mmHg 77%
    03:00 +2°C° 0 mm 2 m/s 760 mmHg 80%
    04:00 +1°C° 0 mm 2 m/s 759 mmHg 80%
    05:00 0°C° 0 mm 3 m/s 759 mmHg 80%
    06:00 0°C° 0 mm 3 m/s 759 mmHg 80%
    07:00 +1°C° 0 mm 3 m/s 759 mmHg 78%
    08:00 +1°C° 0 mm 4 m/s 759 mmHg 75%
    09:00 +1°C° 0 mm 4 m/s 759 mmHg 72%
    10:00 +2°C° 0 mm 5 m/s 759 mmHg 68%
    11:00 +3°C° 0 mm 5 m/s 759 mmHg 63%
    12:00 +4°C° 0 mm 6 m/s 759 mmHg 59%
    13:00 +5°C° 0 mm 6 m/s 758 mmHg 57%
    14:00 +5°C° 0 mm 6 m/s 758 mmHg 54%
    15:00 +5°C° 0 mm 6 m/s 757 mmHg 52%
    16:00 +6°C° 0 mm 5 m/s 757 mmHg 56%
    17:00 +5°C° 0 mm 5 m/s 757 mmHg 59%
    18:00 +5°C° 0 mm 4 m/s 756 mmHg 63%
    19:00 +4°C° 0 mm 4 m/s 756 mmHg 66%
    20:00 +4°C° 0 mm 4 m/s 756 mmHg 68%
    21:00 +3°C° 0 mm 4 m/s 756 mmHg 71%
    22:00 +2°C° 0 mm 5 m/s 756 mmHg 71%
    23:00 +2°C° 0 mm 5 m/s 755 mmHg 71%

    3 Mars, Mardi

    Heure Température Précipitation Vent Pression Humidité
    00:00 +2°C° 0 mm 6 m/s 755 mmHg 71%
    01:00 +2°C° 0 mm 6 m/s 755 mmHg 69%
    02:00 +2°C° 0 mm 6 m/s 754 mmHg 68%
    03:00 +2°C° 0 mm 6 m/s 754 mmHg 67%
    04:00 +2°C° 0 mm 6 m/s 754 mmHg 69%
    05:00 +2°C° 0 mm 6 m/s 754 mmHg 70%
    06:00 +2°C° 0 mm 6 m/s 753 mmHg 72%
    07:00 0°C° 0.3 mm 7 m/s 753 mmHg 77%
    08:00 0°C° 0.3 mm 7 m/s 753 mmHg 81%
    09:00 0°C° 0.3 mm 8 m/s 753 mmHg 86%
    10:00 0°C° 0.5 mm 7 m/s 753 mmHg 87%
    11:00 0°C° 0.5 mm 7 m/s 753 mmHg 89%
    12:00 +1°C° 0.5 mm 6 m/s 752 mmHg 90%
    13:00 +2°C° 0.3 mm 6 m/s 752 mmHg 86%
    14:00 +3°C° 0.3 mm 5 m/s 752 mmHg 82%
    15:00 +5°C° 0.3 mm 4 m/s 752 mmHg 78%
    16:00 +5°C° 0 mm 4 m/s 752 mmHg 80%
    17:00 +7°C° 0 mm 3 m/s 752 mmHg 82%
    18:00 +7°C° 0 mm 3 m/s 752 mmHg 84%
    19:00 +7°C° 0 mm 3 m/s 752 mmHg 85%
    20:00 +7°C° 0 mm 3 m/s 752 mmHg 87%
    21:00 +6°C° 0 mm 4 m/s 752 mmHg 89%
    22:00 +7°C° 0 mm 3 m/s 752 mmHg 89%
    23:00 +7°C° 0 mm 3 m/s 752 mmHg 90%
    Voir plus